SCP
0 0 0 0 0 0 0 0 0 0 0 0 0 0 0 0 0 0 0 0 0 0 0 0 0 0 0 0 0 0 0 0 0 0 0 0 0 0 0 0 0 0 0 0
0 0 0 0 0 0 0 0 0 0 0 0 0 0 0 0 0 0 0 0 0 0 0 0 0 0 0 0 0 0 0 0 0 0 0 0 0 0 0 0 0 0 0 0
0 0 0 0 0 0 0 0 0 0 0 0 0 0 0 0 0 0 0 0 0 0 0 0 0 0 0 0 0 0 0 0 0 0 0 0 0 0 0 0 0 0 0 0
0 0 0 0 0 0 0 0 0 0 0 0 0 0 0 0 0 0 0 0 0 0 0 0 0 0 0 0 0 0 0 0 0 0 0 0 0 0 0 0 0 0 0 0
0 0 0 0 0 0 0 0 0 0 0 0 0 0 0 0 0 0 0 0 0 0 0 0 0 0 0 0 0 0 0 0 0 0 0 0 0 0 0 0 0 0 0 0
0 0 0 0 0 0 0 0 0 0 0 0 0 0 0 0 0 0 0 0 0 0 0 0 0 0 0 0 0 0 0 0 0 0 0 0 0 0 0 0 0 0 0 0
0 0 0 0 0 0 0 0 0 0 0 0 0 0 0 0 0 0 0 0 0 0 0 0 0 0 0 0 0 0 0 0 0 0 0 0 0 0 0 0 0 0 0 0
0 0 0 0 0 0 0 0 0 0 0 0 0 0 0 0 0 0 0 0 0 0 0 0 0 0 0 0 0 0 0 0 0 0 0 0 0 0 0 0 0 0 0 0
0 0 0 0 0 0 0 0 0 0 0 0 0 0 0 0 0 0 0 0 0 0 0 0 0 0 0 0 0 0 0 0 0 0 0 0 0 0 0 0 0 0 0 0
0 0 0 0 0 0 0 0 0 0 0 0 0 0 0 0 0 0 0 0 0 0 0 0 0 0 0 0 0 0 0 0 0 0 0 0 0 0 0 0 0 0 0 0
0 0 0 0 0 0 0 0 0 0 0 0 0 0 0 0 0 0 0 0 0 0 0 0 0 0 0 0 0 0 0 0 0 0 0 0 0 0 0 0 0 0 0 0
0 0 0 0 0 0 0 0 0 0 0 0 0 0 0 0 0 0 0 0 0 0 0 0 0 0 0 0 0 0 0 0 0 0 0 0 0 0 0 0 0 0 0 0
0 0 0 0 0 0 0 0 0 0 0 0 0 0 0 0 0 0 0 0 0 0 0 0 0 0 0 0 0 0 0 0 0 0 0 0 0 0 0 0 0 0 0 0
0 0 0 0 0 0 0 0 0 0 0 0 0 0 0 0 0 0 0 0 0 0 0 0 0 0 0 0 0 0 0 0 0 0 0 0 0 0 0 0 0 0 0 0
0 0 0 0 0 0 0 0 0 0 0 0 0 0 0 0 0 0 0 0 0 0 0 0 0 0 0 0 0 0 0 0 0 0 0 0 0 0 0 0 0 0 0 0
0 0 0 0 0 0 0 0 0 0 0 0 0 0 0 0 0 0 0 0 0 0 0 0 0 0 0 0 0 0 0 0 0 0 0 0 0 0 0 0 0 0 0 0
0 0 0 0 0 0 0 0 0 0 0 0 0 0 0 0 0 0 0 0 0 0 0 0 0 0 0 0 0 0 0 0 0 0 0 0 0 0 0 0 0 0 0 0
0 0 0 0 0 0 0 0 0 0 0 0 0 0 0 0 0 0 0 0 0 0 0 0 0 0 0 0 0 0 0 0 0 0 0 0 0 0 0 0 0 0 0 0
0 0 0 0 0 0 0 0 0 0 0 0 0 0 0 0 0 0 0 0 0 0 0 0 0 0 0 0 0 0 0 0 0 0 0 0 0 0 0 0 0 0 0 0
0 0 0 0 0 0 0 0 0 0 0 0 0 0 0 0 0 0 0 0 0 0 0 0 0 0 0 0 0 0 0 0 0 0 0 0 0 0 0 0 0 0 0 0
0 0 0 0 0 0 0 0 0 0 0 0 0 0 0 0 0 0 0 0 0 0 0 0 0 0 0 0 0 0 0 0 0 0 0 0 0 0 0 0 0 0 0 0
0 0 0 0 0 0 0 0 0 0 0 0 0 0 0 0 0 0 0 0 0 0 0 0 0 0 0 0 0 0 0 0 0 0 0 0 0 0 0 0 0 0 0 0
0 0 0 0 0 0 0 0 0 0 0 0 0 0 0 0 0 0 0 0 0 0 0 0 0 0 0 0 0 0 0 0 0 0 0 0 0 0 0 0 0 0 0 0
0 0 0 0 0 0 0 0 0 0 0 0 -0 -0 -0 -0 -0 -0 0 0 0 0 0 0 0 0 0 0 0 0 0 0 0 0 0 0 0 0 0 0 0 0 0 0
0 0 0 0 0 0 0 0 0 0 0 0 0 0 0 0 -0 -0 -0 -0 -0 -0 -0 0 0 0 0 0 0 0 0 0 0 0 0 0 0 0 0 0 0 0 0 0
0 0 0 0 0 0 0 0 0 0 0 0 0 0 0 0 -0 -0 -0 -0 -0 -0 -0 0 0 0 0 0 0 0 0 0 0 0 0 0 0 0 0 0 0 0 0 0
Wind_Speed
4 5 10 17 19 14 9 9 14 16 7 8 14 19 21 16 10 12 13 13 15 18 20 13 12 14 13 14 17 19 20 18 15 12 12 10 10 8 7 8 9 10 8 8
4 11 20 12 6 7 9 12 17 15 11 9 14 21 17 15 14 15 16 17 19 18 16 16 12 12 17 19 20 20 21 20 20 15 12 6 6 6 6 6 8 10 10 10
14 10 10 9 7 10 13 15 20 16 9 6 10 15 10 13 14 14 15 18 20 21 21 19 13 14 16 19 22 21 22 21 19 14 9 6 4 3 5 7 9 11 11 11
10 9 7 8 11 14 17 14 17 14 10 10 6 23 10 13 15 16 20 20 22 22 21 19 15 13 18 21 19 19 20 18 17 16 16 16 13 14 13 8 8 9 11 11
10 5 8 13 16 15 16 8 9 8 8 9 4 15 14 10 12 16 20 21 22 22 21 21 18 17 17 16 16 17 17 17 17 18 20 18 15 11 5 5 10 10 9 10
10 5 6 10 6 9 6 1 2 3 1 13 10 13 25 12 15 13 18 19 20 21 19 19 15 10 10 11 12 14 17 18 18 20 19 20 19 13 11 11 12 10 7 8
8 6 7 6 4 3 5 5 3 5 3 14 8 12 18 9 12 17 20 20 20 18 17 16 12 10 11 14 16 16 18 19 19 20 20 21 20 18 18 16 14 12 10 11
7 13 9 8 12 11 9 12 11 9 10 11 5 15 14 8 10 10 12 14 15 15 12 10 7 10 12 15 16 17 19 19 20 21 21 18 17 14 13 14 13 14 13 12
10 14 5 7 7 9 7 10 11 9 8 9 11 12 14 8 10 13 16 15 15 12 8 7 7 9 11 15 18 20 20 18 19 20 18 16 17 16 15 12 11 9 8 8
9 13 9 3 2 4 7 6 4 7 8 11 11 14 18 15 12 13 11 11 11 10 9 9 8 9 11 12 13 13 15 18 16 16 16 14 15 16 12 10 13 12 10 10
5 7 9 2 9 10 6 5 8 7 7 9 11 13 16 13 9 9 11 11 10 10 10 10 9 8 8 7 9 12 13 13 13 15 15 14 14 13 12 12 13 12 12 13
7 7 11 14 10 7 10 13 12 12 15 10 11 14 24 16 13 13 15 15 12 10 10 9 8 6 7 9 11 13 14 15 16 16 15 15 12 12 14 15 14 14 15 15
6 7 9 7 8 7 10 13 18 16 13 15 20 17 20 18 18 15 14 13 10 9 9 8 7 8 10 12 13 14 15 17 16 14 15 15 15 16 18 17 15 15 16 15
15 13 18 21 14 7 8 10 12 14 14 20 25 24 21 27 25 18 12 11 10 10 10 10 10 10 11 11 13 14 16 16 15 15 16 17 19 20 19 15 15 16 17 17
9 15 21 26 26 24 25 23 19 22 22 24 23 22 22 27 28 19 13 10 9 10 10 12 12 12 12 11 12 13 15 14 14 15 17 20 18 15 13 14 15 16 17 17
7 13 17 25 24 26 30 29 31 32 29 30 30 32 30 29 25 24 21 13 10 10 11 13 13 14 14 14 13 13 14 14 13 16 18 15 13 13 14 15 15 16 16 15
7 10 16 23 20 22 27 25 31 28 27 28 33 32 24 22 21 20 12 10 10 11 11 11 12 12 13 13 12 13 13 10 11 14 13 11 12 14 14 14 15 17 17 16
16 19 15 15 17 29 15 11 19 26 28 26 20 14 13 16 17 5 15 16 17 18 17 15 14 14 13 10 9 8 6 6 10 11 11 11 12 13 13 15 16 15 13 15
19 19 14 12 21 21 7 7 10 11 8 15 16 18 21 24 12 7 19 18 15 15 14 13 12 11 12 11 9 5 3 3 6 9 10 11 13 13 14 16 16 13 13 12
5 7 11 11 16 15 4 14 18 11 3 15 16 18 20 21 14 11 20 19 17 15 12 12 12 10 12 12 9 6 4 2 5 6 6 7 10 13 15 15 13 10 11 11
7 6 8 13 14 5 7 13 14 5 7 13 13 13 13 11 9 15 18 16 13 13 13 12 12 11 11 10 8 7 6 5 4 1 3 6 8 10 11 11 10 11 11 12
4 5 5 5 7 4 9 11 6 8 10 10 9 8 9 11 13 12 13 14 14 13 13 13 13 13 11 9 8 9 8 5 1 2 3 5 7 8 9 11 11 11 13 13
7 6 4 5 7 13 11 8 9 9 9 7 7 8 9 11 13 13 14 13 13 13 13 12 13 15 13 8 7 11 9 4 2 3 4 5 6 7 9 12 13 12 12 11
6 5 7 10 12 15 15 11 8 5 5 5 5 6 8 11 13 14 14 14 14 13 13 12 14 16 16 11 8 10 9 4 5 7 7 7 9 9 10 10 12 12 13 13
10 8 10 15 17 15 12 9 7 5 4 5 6 7 10 11 14 14 14 14 14 15 13 12 14 16 18 15 13 10 8 6 8 9 8 9 10 11 11 12 11 13 12 14
13 15 16 17 18 15 16 11 6 5 6 7 9 13 12 12 15 16 15 14 14 15 15 15 16 17 18 17 17 14 8 8 10 9 9 9 9 9 9 10 9 17 14 20
Wind_Direction
158 139 208 214 207 214 222 230 246 255 245 199 228 242 253 260 255 255 257 256 252 250 251 245 222 209 202 198 194 191 189 185 177 179 182 184 191 188 188 190 187 182 177 172
113 223 226 225 212 232 248 256 260 270 254 226 245 249 251 258 252 244 246 250 250 251 257 252 231 204 200 199 197 193 191 185 186 188 185 177 168 182 188 187 187 185 180 177
200 225 222 219 216 222 230 232 248 252 280 273 286 271 234 249 250 252 248 246 248 246 248 252 238 211 203 201 198 194 192 188 187 175 161 140 135 131 178 196 194 191 185 182
236 243 210 199 217 214 245 228 242 254 264 264 238 283 238 226 242 246 249 248 247 247 245 247 241 217 206 206 197 194 189 185 181 171 176 176 187 196 198 189 185 185 187 184
242 227 205 216 224 208 236 235 236 246 251 274 194 271 271 194 229 242 246 246 246 245 243 242 237 223 211 199 190 190 183 182 178 180 184 188 198 200 171 166 178 186 189 186
247 239 220 220 232 218 233 127 356 39 57 269 202 230 275 177 212 230 241 246 245 245 243 242 238 216 199 184 181 180 181 184 182 185 187 193 198 188 179 186 189 190 187 188
280 247 232 193 219 220 161 160 314 308 257 253 188 219 262 200 205 217 232 242 245 244 242 243 232 202 189 184 184 183 184 188 187 190 194 199 200 194 197 195 195 189 188 194
274 276 219 200 201 205 197 181 197 220 238 264 213 235 256 235 248 260 259 257 259 258 257 256 231 201 195 191 187 187 191 192 190 195 201 201 198 199 204 200 197 198 201 199
228 258 229 204 205 179 183 207 213 216 255 273 263 266 289 260 265 260 257 259 264 274 284 262 232 211 201 195 194 194 195 196 196 199 199 200 199 202 204 196 195 198 196 182
222 263 278 242 182 243 190 187 145 179 208 238 254 267 270 276 257 257 265 270 273 276 270 259 241 222 212 206 201 197 200 202 199 197 199 201 202 204 198 184 195 196 185 176
239 257 282 272 203 215 186 198 207 213 206 220 240 250 257 257 251 256 265 269 272 273 265 255 245 234 222 210 201 201 203 202 199 199 201 201 199 195 189 193 196 189 180 178
204 223 247 248 242 221 217 218 207 222 237 230 245 248 261 260 258 260 268 278 282 276 272 265 255 240 221 216 212 210 208 207 208 204 201 203 195 187 193 200 194 183 181 181
206 223 257 257 269 243 222 225 230 238 248 245 249 252 263 267 263 256 254 263 270 275 276 270 256 239 228 221 216 215 213 213 210 202 201 201 197 196 202 201 190 182 180 179
262 238 244 257 256 259 246 241 236 233 243 249 247 254 264 271 270 268 262 262 270 275 276 272 267 258 242 228 221 218 218 215 208 202 203 204 204 205 204 195 185 182 178 177
246 250 250 256 259 258 256 254 250 246 246 252 255 257 257 263 271 276 273 265 262 265 265 264 262 259 251 241 230 222 222 214 205 203 206 210 208 203 192 185 182 179 179 179
260 262 264 263 259 256 256 254 254 254 255 256 260 260 259 264 274 281 282 286 281 275 269 266 263 260 255 250 242 230 225 215 201 204 211 208 196 189 187 184 178 177 177 174
269 272 279 277 275 271 257 248 251 253 251 255 259 262 270 274 273 277 311 353 350 336 323 307 294 284 272 261 248 239 231 212 199 207 208 195 188 187 185 177 175 178 176 172
243 257 267 276 278 265 267 248 252 255 258 265 276 308 326 310 291 356 36 19 5 355 345 335 325 314 306 297 287 269 245 204 200 204 201 190 184 184 176 175 180 178 173 174
233 241 249 253 262 269 280 360 335 292 288 23 14 10 3 344 321 65 23 1 346 337 332 328 325 320 322 326 320 305 271 212 204 207 202 189 181 177 175 180 181 174 170 172
286 262 258 263 268 272 356 352 322 293 203 30 13 6 1 359 353 339 341 333 329 326 324 322 324 327 333 333 336 333 317 275 238 226 208 182 176 177 180 180 173 166 166 165
333 312 273 270 269 251 47 353 349 338 343 352 346 342 341 334 304 298 309 314 314 313 316 319 322 324 324 326 332 324 314 291 283 235 167 170 175 177 173 165 162 159 158 157
297 293 290 297 275 232 21 7 1 298 300 307 311 313 307 298 297 299 303 308 314 317 320 323 321 318 318 322 319 307 297 291 278 165 169 173 169 163 159 157 157 160 160 160
235 225 249 251 272 296 303 291 260 255 277 293 299 306 306 304 304 307 307 309 312 314 315 317 315 312 311 309 302 295 293 277 210 183 187 177 166 163 163 164 163 164 167 170
251 252 261 274 272 280 288 282 269 262 271 282 285 295 299 298 300 303 306 308 310 309 311 314 314 310 307 307 292 281 287 262 212 207 197 183 178 176 174 175 174 176 180 181
249 260 263 271 279 283 274 273 278 278 275 285 296 292 293 294 294 298 300 299 301 306 309 310 309 304 302 307 299 284 271 245 229 222 207 195 193 186 186 190 192 191 193 190
249 256 259 264 269 272 282 285 291 284 288 300 300 296 291 290 292 294 293 295 299 301 304 305 304 301 302 305 300 295 278 245 233 227 213 203 197 193 191 190 195 206 197 203